Regional Weather Roundup
Issued by NWS

Home | Current Version | Previous Version | Text Only | Print | Product List | Glossary Off
Versions: 1 2 3 4 5 6 7 8 9 10 11 12 13 14 15 16 17 18 19 20 21 22 23 24 25 26 27 28 29 30 31 32 33 34 35 36 37 38 39 40 41 42 43 44 45 46 47 48 49 50

000
ASUS45 KBOU 261007
RWRCO

WEATHER ROUNDUP FOR COLORADO
NATIONAL WEATHER SERVICE DENVER/BOULDER CO
300 AM MST THU FEB 26 2015

NOTE: "FAIR" INDICATES FEW OR NO CLOUDS BELOW 12000 FEET WITH NO
SIGNIFICANT WEATHER AND/OR OBSTRUCTIONS TO VISIBILITY.

COZ001>005-013-030-031-261100-
...NORTHWEST COLORADO...

CITY           SKY/WX    TMP DP  RH WIND       PRES   REMARKS
CRAIG          CLOUDY    15  12  88 N3        30.06F
HAYDEN         CLOUDY    16  10  79 CALM      30.04F
MEEKER         CLEAR     17  11  77 CALM      30.05F
MOUNT WERNER   NOT AVBL
STEAMBOAT SPGS CLOUDY    16  13  87 CALM      30.03F
WALDEN         CLOUDY     9   5  85 CALM      29.98F
$$

COZ006>008-011-261100-
...WEST CENTRAL VALLEYS...

CITY           SKY/WX    TMP DP  RH WIND       PRES   REMARKS
GRAND JUNCTION CLEAR     25  18  74 E3        30.03F
MONTROSE       PTCLDY    20  17  88 S6        30.07S WCI  12
EAGLE          PTCLDY    19  18  93 E5        30.05F WCI  13
RIFLE          CLEAR     24  16  71 CALM      30.07S
DELTA          PTCLDY    28  26  91 NE5       30.05F WCI  23
NUCLA          CLEAR     30  19  64 CALM      30.06F
$$

COZ017>023-064>068-261100-
...SOUTHWEST COLORADO...

CITY           SKY/WX    TMP DP  RH WIND       PRES   REMARKS
DURANGO        CLEAR     19  18  95 E6        29.96S WCI  11
CORTEZ         CLEAR     22  20  92 SE3       30.00F
PAGOSA SPRINGS CLEAR     18  17  98 CALM      29.95F
TELLURIDE      PTCLDY    18  14  85 CALM      29.99F
WOLF CREEK PAS LGT SNOW   9   7  92 CALM      29.93F
$$

COZ009-010-012-014-032>034-037-058>063-261100-
...CENTRAL COLORADO...

CITY           SKY/WX    TMP DP  RH WIND       PRES   REMARKS
ASPEN          CLOUDY    15  11  83 SW3       29.98S
BUENA VISTA    FLURRIES  18  16  90 CALM      29.98F
COPPER MTN     CLOUDY     7   0  72 W20       29.86F WCI -13
BERTHOUD PASS  LGT SNOW  -2  -8  78 NW17      29.83F WCI -24
COTTONWOOD PAS LGT SNOW  18  12  79 CALM      29.92F
GUNNISON       PTCLDY    14   3  62 N5        30.00S WCI   6
KREMMLING      CLOUDY    12   7  79 CALM      30.02S
LEADVILLE      CLOUDY     5   1  83 W6        29.91F WCI  -6
MONARCH PASS   CLOUDY     9   5  85 MISG      29.95F
SALIDA         MOCLDY    20  17  86 SE7       30.07S WCI  11
SUNLIGHT       CLOUDY   N/A N/A N/A CALM        N/A
WILKERSON PASS LGT SNOW   5   1  85 SW5       29.90F WCI  -4
$$

COZ069>075-261100-
...SAN LUIS VALLEY/SANGRE DE CRISTO MOUNTAINS...

CITY           SKY/WX    TMP DP  RH WIND       PRES   REMARKS
ALAMOSA        CLOUDY    19  13  77 E7        29.96S WCI  10
LA VETA PASS   LGT SNOW  10   7  85 MISG      29.92F VSB 3/4
SAGUACHE       CLOUDY    21  19  93 SE8       29.97S WCI  12
$$

COZ035-036-038>040-261100-
...NORTHERN COLORADO FRONT RANGE...

CITY           SKY/WX    TMP DP  RH WIND       PRES   REMARKS
DENVER INTL AP MOCLDY    11   6  81 NE8       30.15F WCI  -1
DMNS CITY PARK   N/A     14  13  93 E2        30.17F
AURORA         CLOUDY    11   7  83 NE5       30.15F WCI   3
FRONT RANGE AP NOT AVBL
ERIE MUNI ARPT LGT SNOW  15  13  90 CALM      30.18F
BOULDER MUN AP LGT SNOW  18  18 100 E5        30.16F WCI  11
CENTENNIAL     LGT SNOW  12   8  84 CALM      30.13F FOG
BROOMFIELD     LGT SNOW  14  14 100 SE6       30.15F WCI   5
FORT COLLINS   CLOUDY    18   9  68 E9        30.19F WCI   6
LONGMONT       FLURRIES  20  16  84 S3        30.20F
$$

COZ041-046-047-076>085-087-088-261100-
...PIKES PEAK/PALMER DIVIDE AND SOUTHERN FOOTHILLS...

CITY           SKY/WX    TMP DP  RH WIND       PRES   REMARKS
COLO. SPRINGS  CLOUDY    17   8  67 N14       30.10F WCI   3
A. F. ACADEMY  PTCLDY    13   6  72 N14       30.08F WCI  -2
ELLICOTT       NOT AVBL
FALCON         CLOUDY    12   8  83 N14G20    30.06F WCI  -3
FORT CARSON    CLOUDY    18  10  70 N21       30.09F WCI   1
LIMON          MOCLDY     9   6  88 N5        30.14F WCI   1
MONUMENT HILL  LGT SNOW   9   5  85 N8        30.05F WCI  -4
TRINIDAD       LGT SNOW  23  20  88 S7        30.07F FOG     WCI  15
$$

COZ042>045-048>051-090-091-261100-
...NORTHEAST COLORADO...

CITY           SKY/WX    TMP DP  RH WIND       PRES   REMARKS
GREELEY ARPT   MOCLDY    18   7  62 E9        30.20S WCI   6
AKRON          FLURRIES  12   8  84 NE8       30.20S WCI   0
BURLINGTON     CLOUDY    15   8  73 N18       30.21R WCI  -2
WRAY           CLOUDY    17   7  65 N13       30.27S WCI   4
STERLING       MOCLDY    14   9  79 NE5       30.24S WCI   6
HOLYOKE        NOT AVBL
FORT MORGAN    FLURRIES  15  10  79 N3        30.22S
$$

COZ086-089-092>099-261100-
...SOUTHEAST COLORADO...

CITY           SKY/WX    TMP DP  RH WIND       PRES   REMARKS
PUEBLO         LGT SNOW  23  18  81 N18       30.15R WCI   9
LA JUNTA       LGT SNOW  22  18  85 E23       30.17R FOG     WCI   6
LAMAR          LGT SNOW  20  32 100 NE25      30.21R WCI   2
SPRINGFIELD      N/A     21  18  88 NE17      30.14S WCI   7
$$



USA.gov is the U.S. government's official web portal to all federal, state and local government web resources and services.